TimeCST,TemperatureF,Dew PointF,Humidity,Sea Level PressureIn,VisibilityMPH,Wind Direction,Wind SpeedMPH,Gust SpeedMPH,PrecipitationIn,Events,Conditions,WindDirDegrees,DateUTC
12:53 AM,37.9,30.0,73,30.06,10.0,Calm,Calm,-,N/A,,Scattered Clouds,0,2014-02-16 06:53:00
1:53 AM,37.0,28.9,73,30.07,10.0,Calm,Calm,-,N/A,,Clear,0,2014-02-16 07:53:00
2:53 AM,42.1,30.0,62,30.08,10.0,Calm,Calm,-,N/A,,Clear,0,2014-02-16 08:53:00
3:53 AM,37.0,28.9,73,30.08,10.0,Calm,Calm,-,N/A,,Clear,0,2014-02-16 09:53:00
4:53 AM,37.0,28.9,73,30.07,10.0,Calm,Calm,-,N/A,,Scattered Clouds,0,2014-02-16 10:53:00
5:53 AM,34.0,28.9,82,30.07,10.0,Calm,Calm,-,N/A,,Partly Cloudy,0,2014-02-16 11:53:00
6:53 AM,34.0,28.0,79,30.07,10.0,NNE,3.5,-,N/A,,Clear,30,2014-02-16 12:53:00
7:53 AM,39.9,32.0,73,30.07,10.0,NE,3.5,-,N/A,,Mostly Cloudy,50,2014-02-16 13:53:00
8:53 AM,50.0,32.0,50,30.08,10.0,Calm,Calm,-,N/A,,Partly Cloudy,0,2014-02-16 14:53:00
9:53 AM,57.9,32.0,37,30.08,10.0,Variable,6.9,-,N/A,,Partly Cloudy,0,2014-02-16 15:53:00
10:53 AM,61.0,30.0,31,30.08,10.0,East,8.1,-,N/A,,Clear,100,2014-02-16 16:53:00
11:53 AM,64.9,32.0,29,30.06,10.0,SE,10.4,17.3,N/A,,Partly Cloudy,130,2014-02-16 17:53:00
12:53 PM,64.9,39.9,40,30.03,10.0,SE,8.1,18.4,N/A,,Scattered Clouds,140,2014-02-16 18:53:00
1:53 PM,69.1,44.1,40,29.99,10.0,SSE,9.2,17.3,N/A,,Clear,150,2014-02-16 19:53:00
2:53 PM,71.1,45.0,39,29.95,10.0,SE,9.2,18.4,N/A,,Clear,130,2014-02-16 20:53:00
3:53 PM,71.1,46.0,41,29.93,10.0,SSE,8.1,20.7,N/A,,Mostly Cloudy,160,2014-02-16 21:53:00
4:53 PM,70.0,48.0,46,29.91,10.0,SSE,10.4,20.7,N/A,,Mostly Cloudy,150,2014-02-16 22:53:00
5:53 PM,66.9,48.9,52,29.91,10.0,SSE,10.4,20.7,N/A,,Clear,160,2014-02-16 23:53:00
6:53 PM,66.0,48.9,54,29.91,10.0,SSE,9.2,-,N/A,,Overcast,150,2014-02-17 00:53:00
7:53 PM,64.9,51.1,61,29.90,10.0,SSE,9.2,17.3,N/A,,Overcast,150,2014-02-17 01:53:00
8:53 PM,64.0,51.1,63,29.91,10.0,SSE,10.4,17.3,N/A,,Overcast,150,2014-02-17 02:53:00
9:53 PM,63.0,51.1,65,29.88,10.0,SE,8.1,17.3,N/A,,Scattered Clouds,140,2014-02-17 03:53:00
10:53 PM,63.0,51.1,65,29.86,10.0,SSE,10.4,-,N/A,,Scattered Clouds,150,2014-02-17 04:53:00
11:53 PM,63.0,52.0,67,29.84,10.0,SSE,8.1,16.1,N/A,,Mostly Cloudy,160,2014-02-17 05:53:00